Paris, IL

6:21 AM CST on February 23, 2017 (GMT -0600)
Edgar County

Weather History for KPRG - March, 2013

Change the Weather History Date:

Saturday, March 2, 2013

  Actual Average (KHUF) Record (KHUF)
Temperature  
Mean Temperature 27 °F -  
Max Temperature 31 °F 49 °F 71 °F (1976)
Min Temperature 23 °F 26 °F 1 °F (1980)
Degree Days  
Heating Degree Days 38    
Moisture  
Dew Point 24 °F    
Average Humidity 84    
Maximum Humidity 90    
Minimum Humidity 77    
Precipitation  
Precipitation 0.00 in - - ()
Sea Level Pressure  
Sea Level Pressure 30.14 in    
Wind  
Wind Speed 9 mph (NNW)    
Max Wind Speed 15 mph    
Max Gust Speed 21 mph    
Visibility 5 miles    
Events Snow    
Averages and records for this station are not official NWS values.
T = Trace of Precipitation, MM = Missing Value Source: NWS Daily Summary

Daily Weather History Graph

Daily Weather History Graph

Search for Another Location

Airport or City:

Trip Planner

Search our weather history database for the weather conditions in past years. The results will help you decide how hot, cold, wet, or windy it might be!

Date:

Astronomy

Mar. 02, 2013 Rise Set
Actual Time 6:21 AM CST 5:44 PM CST
Civil Twilight 5:54 AM CST 6:11 PM CST
Nautical Twilight 5:23 AM CST 6:42 PM CST
Astronomical Twilight 4:52 AM CST 7:13 PM CST
Moon 11:22 PM CST (3/2) 8:50 AM CST (3/2)
Length of Visible Light 12h 16m
Length of Day
11h 22m
Waning Gibbous, 74% of the Moon is Illuminated
Mar 2
Waning Gibbous
Mar 4
Last Quarter
Mar 11
New
Mar 19
First Quarter
Mar 27
Full

Hourly Weather History & Observations

Time (CST) Temp. Windchill Dew Point Humidity Pressure Visibility Wind Dir Wind Speed Gust Speed Precip Events Conditions
12:15 AM 29.5 °F 21.8 °F 25.7 °F 86% 30.12 in 7.0 mi North 8.1 mph - N/A   Overcast
12:35 AM 29.3 °F 22.3 °F 25.7 °F 86% 30.12 in 7.0 mi North 6.9 mph 16.1 mph N/A   Overcast
12:55 AM 29.3 °F 21.5 °F 25.5 °F 86% 30.12 in 7.0 mi North 8.1 mph - N/A   Overcast
1:15 AM 29.1 °F 21.3 °F 25.3 °F 86% 30.12 in 7.0 mi NNW 8.1 mph - N/A   Overcast
1:35 AM 29.1 °F 20.6 °F 25.5 °F 86% 30.12 in 7.0 mi NNW 9.2 mph - N/A   Overcast
1:55 AM 29.1 °F 21.3 °F 25.5 °F 86% 30.12 in 7.0 mi NNW 8.1 mph - N/A   Overcast
2:15 AM 28.6 °F 18.7 °F 25.7 °F 89% 30.11 in 7.0 mi NNW 11.5 mph - N/A   Overcast
2:35 AM 28.2 °F 19.5 °F 25.3 °F 89% 30.11 in 7.0 mi NNW 9.2 mph - N/A   Overcast
2:55 AM 28.2 °F 19.5 °F 25.3 °F 89% 30.11 in 7.0 mi NNW 9.2 mph - N/A   Overcast
3:15 AM 28.0 °F 19.3 °F 25.3 °F 90% 30.11 in 7.0 mi NNW 9.2 mph - N/A   Overcast
3:35 AM 28.0 °F 19.3 °F 25.0 °F 88% 30.11 in 7.0 mi NNW 9.2 mph - N/A   Overcast
3:55 AM 28.0 °F 18.6 °F 24.8 °F 88% 30.11 in 7.0 mi NNW 10.4 mph - N/A   Overcast
4:15 AM 28.0 °F 21.7 °F 24.8 °F 88% 30.11 in 5.0 mi North 5.8 mph - N/A   Overcast
4:35 AM 27.9 °F 20.6 °F 24.8 °F 88% 30.11 in 5.0 mi NE 6.9 mph - N/A   Overcast
4:55 AM 28.4 °F 21.2 °F 24.8 °F 86% 30.11 in 7.0 mi NE 6.9 mph - N/A   Overcast
5:15 AM 27.9 °F 19.8 °F 24.4 °F 87% 30.12 in 7.0 mi North 8.1 mph - N/A   Overcast
5:35 AM 28.0 °F 20.8 °F 24.6 °F 87% 30.12 in 7.0 mi NNW 6.9 mph - N/A   Overcast
5:55 AM 28.0 °F 20.8 °F 24.6 °F 87% 30.12 in 7.0 mi NNW 6.9 mph - N/A   Overcast
6:15 AM 28.2 °F 21.0 °F 24.8 °F 87% 30.12 in 7.0 mi NNW 6.9 mph - N/A   Overcast
6:35 AM 28.0 °F 20.8 °F 24.6 °F 87% 30.12 in 5.0 mi North 6.9 mph - N/A   Overcast
6:55 AM 28.2 °F 22.0 °F 24.8 °F 87% 30.13 in 4.0 mi North 5.8 mph - N/A Snow Light Snow
7:15 AM 28.4 °F 21.2 °F 25.2 °F 88% 30.13 in 4.0 mi NNW 6.9 mph - N/A Snow Light Snow
7:35 AM 28.4 °F 21.2 °F 25.2 °F 88% 30.14 in 3.0 mi NNW 6.9 mph - N/A Snow Light Snow
7:55 AM 28.4 °F 20.4 °F 25.2 °F 88% 30.14 in 2.0 mi NNW 8.1 mph - N/A Snow Light Snow
8:15 AM 28.4 °F 20.4 °F 25.5 °F 89% 30.15 in 1.5 mi NNW 8.1 mph - N/A Snow Light Snow
8:35 AM 28.2 °F 19.5 °F 25.5 °F 90% 30.15 in 1.2 mi NNW 9.2 mph - N/A Snow Light Snow
8:55 AM 28.4 °F 21.2 °F 25.7 °F 90% 30.15 in 1.2 mi NNW 6.9 mph - N/A Snow Light Snow
9:15 AM 28.8 °F 20.9 °F 26.1 °F 90% 30.15 in 1.5 mi NNW 8.1 mph - N/A Snow Light Snow
9:35 AM 29.1 °F 23.0 °F 26.2 °F 89% 30.15 in 1.2 mi North 5.8 mph - N/A Snow Light Snow
9:55 AM 29.1 °F 24.1 °F 25.5 °F 86% 30.15 in 2.0 mi North 4.6 mph - N/A Snow Light Snow
10:15 AM 29.7 °F 23.7 °F 25.7 °F 85% 30.15 in 3.0 mi NNW 5.8 mph - N/A Snow Light Snow
10:35 AM 30.2 °F 24.3 °F 24.3 °F 79% 30.15 in 5.0 mi NNW 5.8 mph - N/A   Haze
10:55 AM 30.0 °F 22.4 °F 24.4 °F 80% 30.15 in 5.0 mi NNW 8.1 mph - N/A Snow Light Snow
11:15 AM 30.0 °F 23.2 °F 25.0 °F 82% 30.15 in 2.5 mi NW 6.9 mph - N/A Snow Light Snow
11:35 AM 29.8 °F 21.5 °F 26.1 °F 86% 30.15 in 2.5 mi NNW 9.2 mph - N/A Snow Light Snow
11:55 AM 30.2 °F 21.3 °F 25.2 °F 82% 30.15 in 2.5 mi NNW 10.4 mph - N/A Snow Light Snow
12:15 PM 30.6 °F 22.4 °F 25.7 °F 82% 30.14 in 4.0 mi NNW 9.2 mph - N/A Snow Light Snow
12:35 PM 30.7 °F 23.3 °F 25.2 °F 80% 30.13 in 7.0 mi North 8.1 mph - N/A   Overcast
12:55 PM 30.2 °F 21.9 °F 24.8 °F 80% 30.14 in 5.0 mi North 9.2 mph - N/A Snow Light Snow
1:15 PM 31.3 °F 23.9 °F 25.7 °F 80% 30.13 in 4.0 mi NNW 8.1 mph - N/A Snow Light Snow
1:35 PM 30.0 °F 21.1 °F 25.5 °F 83% 30.13 in 2.0 mi NNW 10.4 mph - N/A Snow Light Snow
1:55 PM 30.9 °F 21.2 °F 25.5 °F 80% 30.13 in 4.0 mi NNW 12.7 mph - N/A Snow Light Snow
2:15 PM 30.7 °F 22.0 °F 25.3 °F 80% 30.13 in 5.0 mi NNW 10.4 mph - N/A Snow Light Snow
2:35 PM 30.6 °F 19.8 °F 25.5 °F 82% 30.13 in 2.5 mi NNW 15.0 mph 19.6 mph N/A Snow Light Snow
2:55 PM 30.6 °F 21.2 °F 25.3 °F 81% 30.13 in 5.0 mi NW 11.5 mph - N/A Snow Light Snow
3:15 PM 30.2 °F 20.8 °F 24.4 °F 79% 30.14 in 2.5 mi NNW 11.5 mph 18.4 mph N/A Snow Light Snow
3:35 PM 30.4 °F 20.5 °F 24.4 °F 79% 30.14 in 2.5 mi NW 12.7 mph 16.1 mph N/A Snow Light Snow
3:55 PM 30.4 °F 20.0 °F 23.9 °F 77% 30.14 in 5.0 mi NW 13.8 mph 20.7 mph N/A Snow Light Snow
4:15 PM 30.2 °F 19.8 °F 24.8 °F 80% 30.14 in 5.0 mi NW 13.8 mph 17.3 mph N/A Snow Light Snow
4:35 PM 30.2 °F 20.2 °F 24.8 °F 80% 30.15 in 5.0 mi NW 12.7 mph - N/A Snow Light Snow
4:55 PM 30.2 °F 20.8 °F 24.8 °F 80% 30.15 in 5.0 mi NNW 11.5 mph - N/A Snow Light Snow
5:15 PM 29.7 °F 21.3 °F 24.8 °F 82% 30.15 in 3.0 mi NNW 9.2 mph - N/A Snow Light Snow
5:35 PM 29.8 °F 21.5 °F 24.1 °F 79% 30.15 in 7.0 mi NNW 9.2 mph - N/A   Overcast
5:55 PM 30.0 °F 20.5 °F 24.1 °F 79% 30.16 in 7.0 mi NW 11.5 mph 16.1 mph N/A   Overcast
6:15 PM 29.8 °F 21.5 °F 23.7 °F 78% 30.16 in 7.0 mi NNW 9.2 mph - N/A   Overcast
6:55 PM 29.3 °F 21.5 °F 23.2 °F 78% 30.16 in 7.0 mi NNW 8.1 mph - N/A   Overcast
7:15 PM 29.3 °F 19.1 °F 23.7 °F 80% 30.16 in 7.0 mi NW 12.7 mph 17.3 mph N/A   Overcast
7:35 PM 28.2 °F 18.9 °F 23.0 °F 81% 30.16 in 7.0 mi NNW 10.4 mph - N/A   Mostly Cloudy
7:55 PM 27.5 °F 18.6 °F 22.8 °F 83% 30.17 in 7.0 mi NW 9.2 mph - N/A   Mostly Cloudy
8:15 PM 27.7 °F 19.6 °F 22.8 °F 82% 30.17 in 7.0 mi NW 8.1 mph - N/A   Overcast
8:35 PM 27.9 °F 19.1 °F 23.2 °F 83% 30.17 in 7.0 mi NW 9.2 mph - N/A   Overcast
8:55 PM 27.5 °F 19.3 °F 22.6 °F 82% 30.18 in 7.0 mi NNW 8.1 mph - N/A   Overcast
9:15 PM 27.5 °F 16.8 °F 22.6 °F 82% 30.18 in 7.0 mi NW 12.7 mph - N/A   Overcast
9:35 PM 27.1 °F 17.5 °F 23.0 °F 84% 30.17 in 7.0 mi NW 10.4 mph - N/A   Overcast
9:55 PM 26.6 °F 16.8 °F 22.1 °F 83% 30.17 in 7.0 mi NW 10.4 mph - N/A   Overcast
10:15 PM 26.1 °F 17.6 °F 22.1 °F 85% 30.17 in 7.0 mi NW 8.1 mph - N/A   Overcast
10:35 PM 25.2 °F 15.7 °F 21.4 °F 86% 30.17 in 7.0 mi NW 9.2 mph - N/A   Mostly Cloudy
10:55 PM 24.6 °F 15.8 °F 21.2 °F 87% 30.17 in 7.0 mi NW 8.1 mph - N/A   Scattered Clouds
11:15 PM 24.3 °F 15.4 °F 20.8 °F 87% 30.17 in 10.0 mi NW 8.1 mph - N/A   Clear
11:35 PM 23.9 °F 16.8 °F 19.0 °F 82% 30.17 in 10.0 mi NW 5.8 mph - N/A   Clear
11:55 PM 23.0 °F 13.9 °F 19.4 °F 86% 30.17 in 10.0 mi NW 8.1 mph - N/A   Clear